Dades meteomassalio
Diari Summary for Gener 23, 2017 Units:  English    Metric   Both
« Previous Day
Next Day »
Diari Semanal Mensual Anual Personalitzat
  Maxima: Minima: Mijana:
Temperatura: TemperatureC °F 4.6 °F 6.9 °F
Rosada: DewpointC °F 1.3 °F 2.8 °F
Humitat: Humidity % 60 % 76 %
Velocitat del vent: WindSpeedKMH mph 0.0 mph 10.7 mph
Racha vent: WindSpeedGustKMH mph - -
Vent:- - WNW
Pressio: PressurehPa in 1018.8 in -
Pluja: 1.5 in    
Historical Graphs
 
 
Tabular Data for Gener 23, 2017
Time Temperature Dew Point Pressure Wind Wind Speed Wind Gust Humidity Rainfall Rate (Hourly) solar Conditions
TemperatureC °F DewpointC °F PressurehPa in Calm     Humidity % HourlyPrecipMM in SolarRadiationWatts/m^2 W/m2 Conditions
00:02 5.8 °F 3.5 °F 1020.2 in WNW 20.4 mph 20.4 mph 85 % 0.0 in 0.0 W/m2 RA
00:07 5.8 °F 3.5 °F 1020.2 in WNW 14.8 mph 14.8 mph 85 % 0.0 in 0.0 W/m2 CLR
00:12 5.7 °F 3.6 °F 1020.2 in WNW 13.0 mph 13.0 mph 86 % 0.0 in 0.0 W/m2 CLR
00:17 5.7 °F 3.6 °F 1020.2 in WNW 16.7 mph 16.7 mph 86 % 0.0 in 0.0 W/m2 CLR
00:22 5.7 °F 3.6 °F 1020.2 in WNW 11.1 mph 11.1 mph 86 % 0.0 in 0.0 W/m2 CLR
00:27 5.8 °F 3.5 °F 1019.9 in WNW 22.2 mph 22.2 mph 85 % 0.0 in 0.0 W/m2 CLR
00:28 5.8 °F 3.5 °F 1019.9 in WNW 22.2 mph 22.2 mph 85 % 0.0 in 0.0 W/m2 CLR
00:33 5.9 °F 3.4 °F 1019.9 in WNW 20.4 mph 20.4 mph 84 % 0.0 in 0.0 W/m2 CLR
00:38 6.0 °F 3.5 °F 1019.9 in WNW 19.3 mph 19.3 mph 84 % 0.0 in 0.0 W/m2 CLR
00:43 6.0 °F 3.3 °F 1020.2 in West 20.4 mph 20.4 mph 83 % 0.0 in 0.0 W/m2 CLR
00:48 5.9 °F 3.4 °F 1020.2 in WNW 13.0 mph 13.0 mph 84 % 0.0 in 0.0 W/m2 CLR
00:53 5.9 °F 3.4 °F 1020.2 in West 8.0 mph 8.0 mph 84 % 0.0 in 0.0 W/m2 CLR
00:58 5.8 °F 3.3 °F 1020.2 in West 8.0 mph 8.0 mph 84 % 0.0 in 0.0 W/m2 CLR
01:03 5.8 °F 3.3 °F 1020.2 in Calm     84 % 0.0 in 0.0 W/m2 CLR
01:08 5.8 °F 3.3 °F 1020.2 in Calm     84 % 0.0 in 0.0 W/m2 CLR
01:13 5.8 °F 3.5 °F 1020.2 in Calm     85 % 0.3 in 0.0 W/m2 RA
01:18 5.7 °F 3.4 °F 1020.2 in Calm     85 % 0.5 in 0.0 W/m2 RA
01:23 5.7 °F 3.3 °F 1020.2 in Calm     85 % 0.5 in 0.0 W/m2 CLR
01:28 5.6 °F 3.4 °F 1020.2 in Calm     86 % 0.5 in 0.0 W/m2 CLR
01:33 5.5 °F 3.5 °F 1020.2 in Calm     87 % 0.5 in 0.0 W/m2 CLR
01:38 5.4 °F 3.4 °F 1019.9 in Calm     87 % 0.5 in 0.0 W/m2 CLR
01:43 5.3 °F 3.5 °F 1019.9 in Calm     88 % 0.5 in 0.0 W/m2 CLR
01:48 5.2 °F 3.4 °F 1019.9 in Calm     88 % 0.5 in 0.0 W/m2 CLR
01:53 5.2 °F 3.6 °F 1019.9 in Calm     89 % 0.5 in 0.0 W/m2 CLR
01:58 5.1 °F 3.4 °F 1020.2 in Calm     89 % 0.5 in 0.0 W/m2 CLR
02:03 5.1 °F 3.4 °F 1019.9 in Calm     89 % 0.5 in 0.0 W/m2 CLR
02:08 5.0 °F 3.5 °F 1019.9 in Calm     90 % 0.5 in 0.0 W/m2 CLR
02:13 4.9 °F 3.4 °F 1019.9 in Calm     90 % 0.3 in 0.0 W/m2 CLR
02:18 4.9 °F 3.4 °F 1019.9 in Calm     90 % 0.0 in 0.0 W/m2 CLR
02:23 4.9 °F 3.4 °F 1019.9 in Calm     90 % 0.0 in 0.0 W/m2 CLR
02:28 4.9 °F 3.4 °F 1019.9 in Calm     90 % 0.0 in 0.0 W/m2 CLR
02:33 4.9 °F 3.4 °F 1019.9 in Calm     90 % 0.0 in 0.0 W/m2 CLR
02:38 5.0 °F 3.5 °F 1019.5 in Calm     90 % 0.0 in 0.0 W/m2 CLR
02:43 5.0 °F 3.5 °F 1019.9 in Calm     90 % 0.0 in 0.0 W/m2 CLR
02:48 5.1 °F 3.6 °F 1019.5 in Calm     90 % 0.0 in 0.0 W/m2 CLR
02:53 5.1 °F 3.4 °F 1019.5 in Calm     89 % 0.0 in 0.0 W/m2 CLR
02:58 5.1 °F 3.4 °F 1019.5 in Calm     89 % 0.0 in 0.0 W/m2 CLR
03:03 5.2 °F 3.3 °F 1019.5 in Calm     88 % 0.0 in 0.0 W/m2 CLR
03:08 5.1 °F 3.3 °F 1019.5 in Calm     88 % 0.0 in 0.0 W/m2 CLR
03:13 5.1 °F 3.2 °F 1019.5 in Calm     88 % 0.0 in 0.0 W/m2 CLR
03:18 5.1 °F 3.2 °F 1019.5 in Calm     88 % 0.0 in 0.0 W/m2 CLR
03:23 5.1 °F 3.2 °F 1019.5 in Calm     88 % 0.0 in 0.0 W/m2 CLR
03:28 5.1 °F 3.2 °F 1019.5 in Calm     88 % 0.0 in 0.0 W/m2 CLR
03:33 5.0 °F 3.0 °F 1019.5 in Calm     87 % 0.0 in 0.0 W/m2 CLR
03:38 4.8 °F 3.0 °F 1019.5 in Calm     88 % 0.0 in 0.0 W/m2 CLR
03:43 4.8 °F 3.0 °F 1019.5 in Calm     88 % 0.0 in 0.0 W/m2 CLR
03:48 4.8 °F 2.9 °F 1019.5 in Calm     88 % 0.0 in 0.0 W/m2 CLR
03:53 4.8 °F 2.9 °F 1019.5 in Calm     88 % 0.0 in 0.0 W/m2 CLR
03:58 4.8 °F 3.0 °F 1019.5 in Calm     88 % 0.0 in 0.0 W/m2 CLR
04:03 4.8 °F 2.9 °F 1019.5 in Calm     88 % 0.0 in 0.0 W/m2 CLR
04:08 4.7 °F 2.9 °F 1019.5 in Calm     88 % 0.0 in 0.0 W/m2 CLR
04:13 4.6 °F 2.8 °F 1019.5 in Calm     88 % 0.0 in 0.0 W/m2 CLR
04:18 4.6 °F 2.8 °F 1019.5 in Calm     88 % 0.0 in 0.0 W/m2 CLR
04:23 4.6 °F 2.8 °F 1019.5 in Calm     88 % 0.0 in 0.0 W/m2 CLR
04:28 4.6 °F 2.8 °F 1019.5 in Calm     88 % 0.0 in 0.0 W/m2 CLR
04:33 4.7 °F 2.8 °F 1019.2 in Calm     88 % 0.0 in 0.0 W/m2 CLR
04:38 4.8 °F 2.9 °F 1019.2 in Calm     88 % 0.0 in 0.0 W/m2 CLR
04:43 4.8 °F 2.8 °F 1019.2 in Calm     87 % 0.0 in 0.0 W/m2 CLR
04:48 4.8 °F 2.8 °F 1019.2 in Calm     87 % 0.0 in 0.0 W/m2 CLR
04:53 4.8 °F 2.8 °F 1019.2 in Calm     87 % 0.0 in 0.0 W/m2 CLR
04:58 4.8 °F 2.8 °F 1019.2 in Calm     87 % 0.0 in 0.0 W/m2 CLR
05:03 4.8 °F 2.7 °F 1019.5 in Calm     86 % 0.0 in 0.0 W/m2 CLR
05:08 4.9 °F 2.9 °F 1019.2 in Calm     87 % 0.0 in 0.0 W/m2 CLR
05:13 4.9 °F 2.9 °F 1019.5 in Calm     87 % 0.0 in 0.0 W/m2 CLR
05:18 4.9 °F 2.7 °F 1019.5 in Calm     86 % 0.0 in 0.0 W/m2 CLR
05:23 4.9 °F 2.7 °F 1019.5 in Calm     86 % 0.0 in 0.0 W/m2 CLR
05:28 5.1 °F 2.7 °F 1019.5 in Calm     85 % 0.0 in 0.0 W/m2 CLR
05:33 5.1 °F 2.7 °F 1019.5 in Calm     85 % 0.0 in 0.0 W/m2 CLR
05:39 5.1 °F 2.6 °F 1019.2 in Calm     84 % 0.0 in 0.0 W/m2 CLR
05:44 5.1 °F 2.6 °F 1019.2 in Calm     84 % 0.0 in 0.0 W/m2 CLR
05:49 5.1 °F 2.6 °F 1019.2 in Calm     84 % 0.0 in 0.0 W/m2 CLR
05:54 5.1 °F 2.6 °F 1019.2 in WSW 3.7 mph 3.7 mph 84 % 0.0 in 0.0 W/m2 CLR
05:59 5.0 °F 2.5 °F 1019.2 in WSW 9.7 mph 9.7 mph 84 % 0.0 in 0.0 W/m2 CLR
06:04 5.1 °F 2.6 °F 1019.2 in WSW 5.6 mph 5.6 mph 84 % 0.0 in 0.0 W/m2 CLR
06:09 5.1 °F 2.6 °F 1019.5 in Calm     84 % 0.0 in 0.0 W/m2 CLR
06:14 5.0 °F 2.5 °F 1019.5 in Calm     84 % 0.0 in 0.0 W/m2 CLR
06:19 5.0 °F 2.3 °F 1019.5 in SW 5.6 mph 5.6 mph 83 % 0.0 in 0.0 W/m2 CLR
06:24 5.1 °F 2.4 °F 1019.2 in WSW 9.3 mph 9.3 mph 83 % 0.0 in 0.0 W/m2 CLR
06:29 5.2 °F 2.3 °F 1019.5 in WSW 11.1 mph 11.1 mph 82 % 0.0 in 0.0 W/m2 CLR
06:34 5.1 °F 2.3 °F 1019.2 in WSW 5.6 mph 5.6 mph 82 % 0.0 in 0.0 W/m2 CLR
06:39 5.1 °F 2.3 °F 1019.2 in WSW 12.9 mph 12.9 mph 82 % 0.0 in 0.0 W/m2 CLR
06:44 5.1 °F 2.4 °F 1019.5 in Calm     83 % 0.0 in 0.0 W/m2 CLR
06:49 5.1 °F 2.4 °F 1019.9 in Calm     83 % 0.0 in 0.0 W/m2 CLR
06:54 5.0 °F 2.3 °F 1020.2 in Calm     83 % 0.0 in 0.0 W/m2 CLR
06:59 5.0 °F 2.5 °F 1020.2 in Calm     84 % 0.0 in 0.0 W/m2 CLR
07:04 4.9 °F 2.4 °F 1020.2 in Calm     84 % 0.0 in 0.0 W/m2 CLR
07:09 4.9 °F 2.4 °F 1020.2 in Calm     84 % 0.0 in 0.0 W/m2 CLR
07:14 4.9 °F 2.4 °F 1020.2 in Calm     84 % 0.0 in 0.0 W/m2 CLR
07:19 4.9 °F 2.4 °F 1020.2 in Calm     84 % 0.0 in 0.0 W/m2 CLR
07:24 4.9 °F 2.4 °F 1020.5 in Calm     84 % 0.0 in 0.0 W/m2 CLR
07:29 4.8 °F 2.3 °F 1020.5 in Calm     84 % 0.0 in 0.0 W/m2 CLR
07:34 4.8 °F 2.3 °F 1020.5 in Calm     84 % 0.0 in 0.0 W/m2 CLR
07:39 4.9 °F 2.4 °F 1020.5 in Calm     84 % 0.0 in 0.0 W/m2 CLR
07:44 4.9 °F 2.4 °F 1020.5 in Calm     84 % 0.0 in 0.0 W/m2 CLR
07:49 4.9 °F 2.4 °F 1020.9 in Calm     84 % 0.0 in 0.0 W/m2 CLR
07:54 4.9 °F 2.4 °F 1020.9 in Calm     84 % 0.0 in 0.0 W/m2 CLR
07:59 4.9 °F 2.4 °F 1020.9 in Calm     84 % 0.0 in 0.0 W/m2 CLR
08:04 4.9 °F 2.4 °F 1020.9 in Calm     84 % 0.0 in 0.0 W/m2 CLR
08:09 4.9 °F 2.4 °F 1020.9 in Calm     84 % 0.3 in 0.0 W/m2 RA
08:14 4.9 °F 2.4 °F 1020.9 in West 16.7 mph 16.7 mph 84 % 0.3 in 0.0 W/m2
08:19 4.9 °F 2.4 °F 1020.9 in West 11.1 mph 11.1 mph 84 % 0.5 in 0.0 W/m2 RA
08:24 4.9 °F 2.6 °F 1020.9 in Calm     85 % 0.5 in 0.0 W/m2
08:29 4.8 °F 2.6 °F 1020.9 in Calm     86 % 0.5 in 12.0 W/m2 BKN
08:34 4.7 °F 2.7 °F 1020.9 in Calm     87 % 0.5 in 26.0 W/m2 BKN
08:39 4.7 °F 2.7 °F 1020.9 in WSW 11.1 mph 11.1 mph 87 % 0.5 in 30.0 W/m2 BKN
08:44 4.7 °F 2.7 °F 1020.9 in WNW 14.8 mph 14.8 mph 87 % 0.5 in 25.0 W/m2 BKN
08:49 4.8 °F 2.8 °F 1020.9 in WNW 13.0 mph 13.0 mph 87 % 0.5 in 23.0 W/m2 BKN
08:54 4.8 °F 2.8 °F 1020.9 in WNW 16.7 mph 16.7 mph 87 % 0.5 in 21.0 W/m2 BKN
08:59 4.8 °F 2.8 °F 1020.9 in WNW 13.0 mph 13.0 mph 87 % 0.5 in 23.0 W/m2 RA
09:04 4.9 °F 2.9 °F 1020.9 in WNW 18.5 mph 18.5 mph 87 % 0.5 in 33.0 W/m2 BKN
09:09 4.9 °F 2.8 °F 1020.9 in West 18.5 mph 18.5 mph 86 % 0.5 in 37.0 W/m2 BKN
09:14 5.0 °F 3.0 °F 1020.9 in WNW 16.7 mph 16.7 mph 87 % 0.5 in 44.0 W/m2 BKN
09:19 5.0 °F 3.0 °F 1020.9 in WNW 20.4 mph 20.4 mph 87 % 0.3 in 58.0 W/m2 BKN
09:24 5.0 °F 3.0 °F 1020.9 in WNW 18.5 mph 18.5 mph 87 % 0.3 in 70.0 W/m2 BKN
09:29 5.1 °F 3.1 °F 1021.2 in WNW 19.3 mph 19.3 mph 87 % 0.3 in 77.0 W/m2 BKN
09:34 5.2 °F 3.0 °F 1021.2 in WNW 16.7 mph 16.7 mph 86 % 0.3 in 69.0 W/m2 BKN
09:39 5.3 °F 3.1 °F 1020.9 in WNW 18.5 mph 18.5 mph 86 % 0.3 in 69.0 W/m2 BKN
09:44 5.3 °F 3.0 °F 1021.2 in WNW 18.5 mph 18.5 mph 85 % 0.3 in 62.0 W/m2 BKN
09:49 5.4 °F 3.1 °F 1021.2 in WNW 18.5 mph 18.5 mph 85 % 0.3 in 69.0 W/m2 BKN
09:54 5.5 °F 3.2 °F 1020.9 in WNW 18.5 mph 18.5 mph 85 % 0.3 in 74.0 W/m2 BKN
09:59 5.6 °F 3.2 °F 1020.9 in West 20.4 mph 20.4 mph 85 % 0.0 in 90.0 W/m2 BKN
10:04 5.6 °F 3.1 °F 1021.2 in WNW 20.4 mph 20.4 mph 84 % 0.0 in 88.0 W/m2 BKN
10:09 5.8 °F 3.1 °F 1020.9 in WNW 18.5 mph 18.5 mph 83 % 0.0 in 142.0 W/m2 BKN
10:14 5.9 °F 3.1 °F 1020.9 in West 20.9 mph 20.9 mph 82 % 0.0 in 125.0 W/m2 BKN
10:19 6.0 °F 3.2 °F 1020.9 in West 25.9 mph 25.9 mph 82 % 0.0 in 83.0 W/m2 BKN
10:24 6.1 °F 3.2 °F 1021.2 in WNW 18.5 mph 18.5 mph 82 % 0.0 in 97.0 W/m2 BKN
10:29 6.1 °F 3.1 °F 1021.2 in WNW 20.4 mph 20.4 mph 81 % 0.0 in 109.0 W/m2 BKN
10:34 6.1 °F 3.2 °F 1021.2 in WNW 19.3 mph 19.3 mph 82 % 0.0 in 155.0 W/m2 BKN
10:39 6.2 °F 3.2 °F 1021.2 in WNW 25.7 mph 25.7 mph 81 % 0.0 in 174.0 W/m2 BKN
10:44 6.3 °F 3.3 °F 1020.9 in WNW 22.5 mph 22.5 mph 81 % 0.0 in 216.0 W/m2 BKN
10:49 6.4 °F 3.4 °F 1021.2 in WNW 22.5 mph 22.5 mph 81 % 0.0 in 246.0 W/m2 BKN
10:54 6.7 °F 3.4 °F 1021.2 in WNW 20.4 mph 20.4 mph 80 % 0.0 in 162.0 W/m2 SCT
10:59 6.7 °F 3.4 °F 1020.9 in WNW 20.4 mph 20.4 mph 80 % 0.0 in 155.0 W/m2 BKN
11:04 6.6 °F 3.2 °F 1021.2 in WNW 18.5 mph 18.5 mph 79 % 0.0 in 144.0 W/m2 BKN
11:09 6.6 °F 3.2 °F 1021.2 in WNW 22.5 mph 22.5 mph 79 % 0.0 in 163.0 W/m2 BKN
11:14 6.7 °F 3.3 °F 1021.2 in WNW 18.5 mph 18.5 mph 79 % 0.0 in 114.0 W/m2 BKN
11:19 6.7 °F 3.2 °F 1021.2 in WNW 20.4 mph 20.4 mph 78 % 0.0 in 100.0 W/m2 BKN
11:24 6.8 °F 3.2 °F 1021.2 in WNW 24.1 mph 24.1 mph 78 % 0.0 in 107.0 W/m2 BKN
11:29 6.9 °F 3.3 °F 1021.2 in WNW 16.7 mph 16.7 mph 78 % 0.0 in 130.0 W/m2 BKN
11:34 7.0 °F 3.4 °F 1021.2 in WNW 18.5 mph 18.5 mph 78 % 0.0 in 139.0 W/m2 BKN
11:40 7.1 °F 3.2 °F 1021.2 in WNW 25.9 mph 25.9 mph 76 % 0.0 in 135.0 W/m2 BKN
11:44 7.2 °F 3.1 °F 1021.2 in WNW 22.2 mph 22.2 mph 75 % 0.0 in 125.0 W/m2 BKN
11:50 7.2 °F 3.3 °F 1021.2 in WNW 16.7 mph 16.7 mph 76 % 0.0 in 158.0 W/m2 BKN
11:55 7.3 °F 3.4 °F 1021.2 in WNW 18.5 mph 18.5 mph 76 % 0.0 in 162.0 W/m2 BKN
12:00 7.4 °F 3.4 °F 1020.9 in WNW 18.5 mph 18.5 mph 76 % 0.0 in 155.0 W/m2 BKN
12:05 7.3 °F 3.2 °F 1020.9 in WNW 24.1 mph 24.1 mph 75 % 0.0 in 142.0 W/m2 BKN
12:10 7.4 °F 3.2 °F 1020.9 in WNW 20.4 mph 20.4 mph 75 % 0.0 in 148.0 W/m2 BKN
12:15 7.4 °F 3.2 °F 1020.9 in WNW 18.5 mph 18.5 mph 75 % 0.0 in 158.0 W/m2 BKN
12:20 7.4 °F 3.3 °F 1020.9 in WNW 14.8 mph 14.8 mph 75 % 0.0 in 148.0 W/m2 BKN
12:25 7.5 °F 3.2 °F 1020.9 in WNW 18.5 mph 18.5 mph 74 % 0.0 in 160.0 W/m2 BKN
12:30 7.6 °F 3.2 °F 1020.9 in WNW 16.7 mph 16.7 mph 74 % 0.0 in 171.0 W/m2 BKN
12:35 7.6 °F 3.2 °F 1020.9 in NW 19.3 mph 19.3 mph 74 % 0.0 in 158.0 W/m2 BKN
12:40 7.6 °F 3.0 °F 1020.9 in WNW 16.7 mph 16.7 mph 73 % 0.0 in 135.0 W/m2 BKN
12:45 7.6 °F 3.0 °F 1020.9 in WNW 16.7 mph 16.7 mph 73 % 0.0 in 123.0 W/m2 BKN
12:50 7.6 °F 2.8 °F 1020.5 in WNW 7.4 mph   72 % 0.0 in 144.0 W/m2 BKN
12:55 7.6 °F 3.1 °F 1020.5 in Calm     73 % 0.0 in 197.0 W/m2 BKN
13:00 7.7 °F 3.2 °F 1020.5 in NW 22.2 mph 22.2 mph 73 % 0.0 in 248.0 W/m2 BKN
13:05 7.8 °F 3.2 °F 1020.5 in WNW 14.8 mph 14.8 mph 73 % 0.0 in 216.0 W/m2 BKN
13:10 7.9 °F 3.2 °F 1020.5 in West 16.7 mph 16.7 mph 72 % 0.0 in 183.0 W/m2 BKN
13:15 7.9 °F 3.0 °F 1020.5 in NW 24.1 mph 24.1 mph 71 % 0.0 in 176.0 W/m2 BKN
13:20 8.0 °F 3.4 °F 1020.2 in NW 18.5 mph 18.5 mph 73 % 0.0 in 241.0 W/m2 BKN
13:25 8.1 °F 3.3 °F 1020.2 in WNW 18.5 mph 18.5 mph 72 % 0.0 in 285.0 W/m2 BKN
13:30 8.1 °F 3.2 °F 1020.2 in WNW 16.7 mph 16.7 mph 71 % 0.0 in 264.0 W/m2 SCT
13:35 8.2 °F 3.2 °F 1019.9 in WNW 9.7 mph 9.7 mph 71 % 0.0 in 230.0 W/m2 SCT
13:40 8.3 °F 3.5 °F 1019.9 in WNW 18.5 mph 18.5 mph 72 % 0.0 in 322.0 W/m2 SCT
13:45 8.4 °F 3.6 °F 1019.5 in WNW 14.8 mph 14.8 mph 72 % 0.0 in 262.0 W/m2 SCT
13:50 8.4 °F 3.7 °F 1019.5 in WNW 13.0 mph 13.0 mph 72 % 0.0 in 211.0 W/m2 SCT
13:55 8.5 °F 3.7 °F 1019.5 in West 14.8 mph 14.8 mph 72 % 0.0 in 230.0 W/m2 BKN
14:00 8.6 °F 3.4 °F 1019.5 in WNW 14.8 mph 14.8 mph 70 % 0.0 in 234.0 W/m2 BKN
14:05 8.6 °F 3.8 °F 1019.5 in WNW 13.0 mph 13.0 mph 72 % 0.0 in 244.0 W/m2 SCT
14:10 8.6 °F 3.2 °F 1019.2 in WNW 16.7 mph 16.7 mph 69 % 0.0 in 221.0 W/m2 SCT
14:15 8.7 °F 3.6 °F 1019.2 in WNW 14.8 mph 14.8 mph 70 % 0.0 in 262.0 W/m2 SCT
14:20 8.8 °F 3.8 °F 1019.2 in WNW 14.8 mph 14.8 mph 71 % 0.0 in 267.0 W/m2 SCT
14:25 8.9 °F 3.5 °F 1019.2 in NW 14.8 mph 14.8 mph 69 % 0.0 in 232.0 W/m2 SCT
14:30 8.9 °F 3.5 °F 1019.2 in NW 18.5 mph 18.5 mph 69 % 0.0 in 345.0 W/m2 SCT
14:35 9.0 °F 3.6 °F 1018.8 in NW 16.7 mph 16.7 mph 69 % 0.0 in 316.0 W/m2 FEW
14:40 9.2 °F 3.3 °F 1018.8 in WNW 18.5 mph 18.5 mph 67 % 0.0 in 334.0 W/m2 CLR
14:45 9.3 °F 3.7 °F 1018.8 in WNW 18.5 mph 18.5 mph 68 % 0.0 in 299.0 W/m2 CLR
14:50 9.3 °F 3.7 °F 1019.2 in WNW 14.8 mph 14.8 mph 68 % 0.0 in 202.0 W/m2 FEW
14:55 9.3 °F 4.1 °F 1019.2 in WNW 13.0 mph 13.0 mph 70 % 0.0 in 209.0 W/m2 SCT
15:00 9.2 °F 3.6 °F 1019.2 in NW 17.7 mph 17.7 mph 68 % 0.0 in 232.0 W/m2 SCT
15:05 9.2 °F 3.6 °F 1018.8 in NW 18.5 mph 18.5 mph 68 % 0.0 in 206.0 W/m2 SCT
15:10 9.2 °F 3.8 °F 1018.8 in NW 9.3 mph 9.3 mph 69 % 0.0 in 174.0 W/m2 SCT
15:15 9.2 °F 3.6 °F 1018.8 in WNW 14.8 mph 14.8 mph 68 % 0.0 in 178.0 W/m2 SCT
15:20 9.2 °F 3.8 °F 1018.8 in NW 9.3 mph 9.3 mph 69 % 0.0 in 181.0 W/m2 SCT
15:25 9.3 °F 3.7 °F 1018.8 in NW 13.0 mph 13.0 mph 68 % 0.0 in 167.0 W/m2 SCT
15:30 9.3 °F 3.5 °F 1018.8 in WNW 11.1 mph 11.1 mph 67 % 0.0 in 174.0 W/m2 SCT
15:35 9.3 °F 3.3 °F 1018.8 in WNW 22.2 mph 22.2 mph 66 % 0.0 in 190.0 W/m2 SCT
15:40 9.3 °F 3.3 °F 1018.8 in NW 18.5 mph 18.5 mph 66 % 0.0 in 172.0 W/m2 FEW
15:45 9.3 °F 3.5 °F 1018.8 in NW 14.8 mph 14.8 mph 67 % 0.0 in 148.0 W/m2 FEW
15:50 9.3 °F 3.7 °F 1018.8 in WNW 16.1 mph 16.1 mph 68 % 0.0 in 118.0 W/m2 SCT
15:55 9.3 °F 3.7 °F 1018.8 in WNW 14.8 mph 14.8 mph 68 % 0.0 in 132.0 W/m2 SCT
16:00 9.3 °F 3.5 °F 1018.8 in WNW 16.7 mph 16.7 mph 67 % 0.0 in 153.0 W/m2 FEW
16:05 9.4 °F 3.6 °F 1018.8 in WNW 14.8 mph 14.8 mph 67 % 0.0 in 197.0 W/m2 CLR
16:10 9.5 °F 3.7 °F 1018.8 in WNW 14.8 mph 14.8 mph 67 % 0.0 in 218.0 W/m2 CLR
16:15 9.7 °F 3.7 °F 1019.2 in WNW 12.9 mph 12.9 mph 66 % 0.0 in 227.0 W/m2 CLR
16:20 9.9 °F 3.8 °F 1018.8 in WNW 8.0 mph 8.0 mph 66 % 0.0 in 230.0 W/m2 CLR
16:25 9.9 °F 3.8 °F 1018.8 in WNW 14.8 mph 14.8 mph 66 % 0.0 in 209.0 W/m2 CLR
16:30 10.0 °F 3.7 °F 1018.8 in WNW 16.7 mph 16.7 mph 65 % 0.0 in 264.0 W/m2 CLR
16:35 10.2 °F 3.9 °F 1018.8 in WNW 13.0 mph 13.0 mph 65 % 0.0 in 260.0 W/m2 CLR
16:40 10.3 °F 4.1 °F 1018.8 in WNW 13.0 mph 13.0 mph 65 % 0.0 in 199.0 W/m2 CLR
16:45 10.3 °F 3.8 °F 1018.8 in WNW 14.8 mph 14.8 mph 64 % 0.3 in 146.0 W/m2 RA
16:50 10.2 °F 3.7 °F 1018.8 in WNW 9.7 mph 9.7 mph 64 % 0.3 in 158.0 W/m2 CLR
16:55 10.3 °F 4.0 °F 1018.8 in WNW 14.8 mph 14.8 mph 65 % 0.3 in 156.0 W/m2 SCT
17:00 10.3 °F 3.8 °F 1018.8 in WNW 9.3 mph 9.3 mph 64 % 0.3 in 130.0 W/m2 OVC
17:05 10.4 °F 3.9 °F 1018.8 in WNW 14.8 mph 14.8 mph 64 % 0.3 in 111.0 W/m2 OVC
17:10 10.3 °F 3.6 °F 1018.8 in WNW 13.0 mph 13.0 mph 63 % 0.3 in 95.0 W/m2 OVC
17:15 10.2 °F 3.3 °F 1018.8 in WNW 16.7 mph 16.7 mph 62 % 0.3 in 90.0 W/m2 OVC
17:20 10.2 °F 3.0 °F 1018.8 in WNW 13.0 mph 13.0 mph 61 % 0.3 in 84.0 W/m2 OVC
17:25 10.2 °F 3.5 °F 1018.8 in West 13.0 mph 13.0 mph 63 % 0.3 in 76.0 W/m2 OVC
17:30 10.2 °F 3.3 °F 1018.8 in West 11.1 mph 11.1 mph 62 % 0.3 in 51.0 W/m2 OVC
17:35 10.2 °F 3.4 °F 1018.8 in West 13.0 mph 13.0 mph 63 % 0.3 in 30.0 W/m2 OVC
17:40 10.1 °F 3.3 °F 1018.8 in West 7.4 mph 7.4 mph 63 % 0.3 in 18.0 W/m2 OVC
17:45 10.0 °F 3.3 °F 1018.8 in West 11.1 mph 11.1 mph 63 % 0.0 in 11.0 W/m2 OVC
17:50 9.9 °F 3.0 °F 1018.8 in Calm     62 % 0.0 in 7.0 W/m2 OVC
17:55 9.8 °F 2.7 °F 1019.2 in West 9.3 mph 9.3 mph 61 % 0.0 in 5.0 W/m2 OVC
18:01 9.8 °F 2.7 °F 1019.2 in West 13.0 mph 13.0 mph 61 % 0.0 in 0.0 W/m2 OVC
18:06 9.7 °F 2.6 °F 1019.2 in West 6.4 mph 6.4 mph 61 % 0.0 in 0.0 W/m2 OVC
18:11 9.7 °F 2.3 °F 1019.2 in West 9.3 mph 9.5 mph 60 % 0.0 in 0.0 W/m2 CLR
18:16 9.7 °F 2.3 °F 1019.2 in West 9.3 mph 9.3 mph 60 % 0.0 in 0.0 W/m2 CLR
18:21 9.6 °F 2.2 °F 1019.2 in West 13.0 mph 13.0 mph 60 % 0.0 in 0.0 W/m2 CLR
18:26 9.6 °F 2.2 °F 1019.5 in West 7.4 mph 7.4 mph 60 % 0.0 in 0.0 W/m2 CLR
18:31 9.5 °F 2.1 °F 1019.5 in West 11.1 mph 11.1 mph 60 % 0.0 in 0.0 W/m2 CLR
18:36 9.4 °F 2.1 °F 1019.5 in West 18.5 mph 18.5 mph 60 % 0.0 in 0.0 W/m2 CLR
18:41 9.4 °F 2.0 °F 1019.5 in WNW 14.8 mph 14.8 mph 60 % 0.0 in 0.0 W/m2 CLR
18:46 9.3 °F 1.9 °F 1019.5 in WNW 13.0 mph 13.0 mph 60 % 0.0 in 0.0 W/m2 CLR
18:51 9.4 °F 2.0 °F 1019.5 in WNW 20.4 mph 20.4 mph 60 % 0.0 in 0.0 W/m2 CLR
18:56 9.4 °F 2.0 °F 1019.5 in West 16.7 mph 16.7 mph 60 % 0.0 in 0.0 W/m2 CLR
19:01 9.3 °F 1.9 °F 1019.5 in West 20.4 mph 20.4 mph 60 % 0.0 in 0.0 W/m2 CLR
19:06 9.3 °F 1.9 °F 1019.9 in West 13.0 mph 13.0 mph 60 % 0.0 in 0.0 W/m2 CLR
19:11 9.2 °F 2.1 °F 1019.9 in West 24.1 mph 24.1 mph 61 % 0.0 in 0.0 W/m2 CLR
19:16 9.1 °F 1.9 °F 1019.9 in West 16.7 mph 16.7 mph 61 % 0.0 in 0.0 W/m2 CLR
19:21 9.1 °F 1.9 °F 1019.9 in West 18.5 mph 18.5 mph 61 % 0.0 in 0.0 W/m2 CLR
19:26 8.9 °F 2.1 °F 1019.9 in West 14.8 mph 14.8 mph 62 % 0.0 in 0.0 W/m2 CLR
19:31 8.9 °F 2.0 °F 1019.9 in West 20.9 mph 20.9 mph 62 % 0.0 in 0.0 W/m2 CLR
19:36 8.8 °F 2.2 °F 1019.9 in WNW 18.5 mph 18.5 mph 63 % 0.0 in 0.0 W/m2 CLR
19:41 8.7 °F 2.1 °F 1019.9 in WNW 20.4 mph 20.4 mph 63 % 0.0 in 0.0 W/m2 CLR
19:46 8.7 °F 1.8 °F 1020.2 in West 20.4 mph 20.4 mph 62 % 0.0 in 0.0 W/m2 CLR
19:51 8.7 °F 1.8 °F 1019.9 in West 14.5 mph 14.5 mph 62 % 0.0 in 0.0 W/m2 CLR
19:56 8.6 °F 1.7 °F 1020.2 in West 16.7 mph 16.7 mph 62 % 0.0 in 0.0 W/m2 CLR
20:01 8.6 °F 1.7 °F 1020.2 in West 5.6 mph 5.6 mph 62 % 0.0 in 0.0 W/m2 CLR
20:06 8.4 °F 1.8 °F 1020.2 in West 22.2 mph 22.2 mph 63 % 0.0 in 0.0 W/m2 CLR
20:11 8.4 °F 1.7 °F 1020.2 in West 16.7 mph 16.7 mph 63 % 0.0 in 0.0 W/m2 CLR
20:16 8.4 °F 1.7 °F 1020.2 in WNW 14.8 mph 14.8 mph 63 % 0.0 in 0.0 W/m2 CLR
20:21 8.3 °F 1.9 °F 1020.5 in WNW 18.5 mph 18.5 mph 64 % 0.0 in 0.0 W/m2 CLR
20:26 8.2 °F 1.8 °F 1020.5 in WNW 13.0 mph 13.0 mph 64 % 0.0 in 0.0 W/m2 CLR
20:31 8.2 °F 1.8 °F 1020.5 in West 5.6 mph 5.6 mph 64 % 0.0 in 0.0 W/m2 CLR
20:36 8.1 °F 1.7 °F 1020.5 in West 9.3 mph 9.3 mph 64 % 0.0 in 0.0 W/m2 CLR
20:41 8.1 °F 1.7 °F 1020.5 in West 14.8 mph 14.8 mph 64 % 0.0 in 0.0 W/m2 CLR
20:46 8.1 °F 1.7 °F 1020.5 in West 18.5 mph 18.5 mph 64 % 0.0 in 0.0 W/m2 CLR
20:51 8.1 °F 1.7 °F 1020.5 in WNW 13.0 mph 13.0 mph 64 % 0.0 in 0.0 W/m2 CLR
20:56 8.1 °F 1.4 °F 1020.5 in WNW 20.4 mph 20.4 mph 63 % 0.0 in 0.0 W/m2 CLR
21:01 8.0 °F 1.8 °F 1020.9 in West 14.8 mph 14.8 mph 65 % 0.0 in 0.0 W/m2 CLR
21:06 8.0 °F 1.4 °F 1020.9 in West 9.3 mph 9.3 mph 63 % 0.0 in 0.0 W/m2 CLR
21:11 7.9 °F 1.6 °F 1020.9 in West 13.0 mph 13.0 mph 64 % 0.0 in 0.0 W/m2 CLR
21:16 7.9 °F 1.6 °F 1020.9 in West 11.1 mph 11.1 mph 64 % 0.0 in 0.0 W/m2 CLR
21:21 7.9 °F 1.6 °F 1020.9 in West 14.8 mph 14.8 mph 64 % 0.0 in 0.0 W/m2 CLR
21:26 7.9 °F 1.5 °F 1020.9 in West 14.8 mph 14.8 mph 64 % 0.0 in 0.0 W/m2 CLR
21:31 7.8 °F 1.4 °F 1020.9 in West 3.7 mph   64 % 0.0 in 0.0 W/m2 CLR
21:36 7.7 °F 1.6 °F 1020.9 in Calm     65 % 0.0 in 0.0 W/m2 CLR
21:41 7.6 °F 1.4 °F 1021.2 in Calm     65 % 0.0 in 0.0 W/m2 CLR
21:46 7.6 °F 1.4 °F 1021.2 in Calm     65 % 0.0 in 0.0 W/m2 CLR
21:51 7.5 °F 1.3 °F 1021.2 in Calm     65 % 0.0 in 0.0 W/m2 CLR
21:56 7.5 °F 1.3 °F 1021.2 in West 12.9 mph 12.9 mph 65 % 0.0 in 0.0 W/m2 CLR
22:01 7.5 °F 1.6 °F 1021.6 in West 11.1 mph 11.1 mph 66 % 0.0 in 0.0 W/m2 CLR
22:06 7.4 °F 1.4 °F 1021.2 in West 13.0 mph 13.0 mph 66 % 0.0 in 0.0 W/m2 CLR
22:11 7.3 °F 1.4 °F 1021.2 in West 16.7 mph 16.7 mph 66 % 0.0 in 0.0 W/m2 CLR
22:16 7.2 °F 1.5 °F 1021.2 in West 16.7 mph 16.7 mph 67 % 0.0 in 0.0 W/m2 CLR
22:21 7.2 °F 1.5 °F 1021.2 in West 18.5 mph 18.5 mph 67 % 0.0 in 0.0 W/m2 CLR
22:27 7.1 °F 1.6 °F 1021.2 in West 11.3 mph 11.3 mph 68 % 0.0 in 0.0 W/m2 CLR
22:32 7.1 °F 1.6 °F 1021.6 in WNW 20.4 mph 20.4 mph 68 % 0.3 in 0.0 W/m2 RA
22:37 7.0 °F 1.5 °F 1021.2 in West 14.8 mph 14.8 mph 68 % 0.3 in 0.0 W/m2 CLR
22:42 6.9 °F 1.4 °F 1021.2 in West 24.1 mph 24.1 mph 68 % 0.3 in 0.0 W/m2 CLR
22:47 6.9 °F 1.7 °F 1021.2 in West 16.1 mph 16.1 mph 69 % 0.3 in 0.0 W/m2 CLR
22:52 6.9 °F 1.6 °F 1021.2 in West 18.5 mph 18.5 mph 69 % 0.3 in 0.0 W/m2 CLR
22:57 6.9 °F 1.6 °F 1021.2 in West 11.3 mph 12.7 mph 69 % 0.3 in 0.0 W/m2 CLR
23:02 6.9 °F 1.6 °F 1021.6 in West 18.5 mph 18.5 mph 69 % 0.3 in 0.0 W/m2 CLR
23:07 6.8 °F 1.6 °F 1021.6 in West 9.7 mph 9.7 mph 69 % 0.3 in 0.0 W/m2 CLR
23:12 6.8 °F 1.6 °F 1021.6 in West 18.5 mph 18.5 mph 69 % 0.3 in 0.0 W/m2 CLR
23:17 6.8 °F 1.5 °F 1021.6 in West 14.8 mph 14.8 mph 69 % 0.3 in 0.0 W/m2 CLR
23:22 6.7 °F 1.6 °F 1021.9 in West 11.1 mph 11.1 mph 70 % 0.3 in 0.0 W/m2 CLR
23:27 6.7 °F 1.6 °F 1021.9 in Calm     70 % 0.3 in 0.0 W/m2 CLR
23:32 6.6 °F 1.5 °F 1021.9 in West 11.3 mph 11.3 mph 70 % 0.0 in 0.0 W/m2 CLR
23:37 6.6 °F 1.4 °F 1021.9 in West 12.9 mph 12.9 mph 70 % 0.0 in 0.0 W/m2 CLR
23:42 6.6 °F 1.4 °F 1021.9 in West 9.3 mph 9.3 mph 70 % 0.0 in 0.0 W/m2 CLR
23:47 6.6 °F 1.4 °F 1021.9 in West 13.0 mph 13.0 mph 70 % 0.0 in 0.0 W/m2 CLR
23:52 6.5 °F 1.4 °F 1021.9 in West 13.0 mph 13.0 mph 70 % 0.0 in 0.0 W/m2 CLR
23:57 6.4 °F 1.4 °F 1021.9 in West 13.0 mph 13.0 mph 70 % 0.0 in 0.0 W/m2 CLR
Lo Temps de Massalio
Compliments of Weather Underground - 1.25 mb